Time,TemperatureF,DewpointF,PressureIn,WindDirection,WindDirectionDegrees,WindSpeedMPH,WindSpeedGustMPH,Humidity,HourlyPrecipIn,Conditions,Clouds,dailyrainin,SoftwareType,DateUTC
2013-05-23 00:00:00,56.0,-99.9,-100.00,NW,312,4.0,9.0,-999,0.00,,,0.00,,2013-05-23 05:00:00,
2013-05-23 00:33:00,56.0,-99.9,-100.00,NW,312,4.0,9.0,-999,0.00,,,0.00,,2013-05-23 05:33:00,
2013-05-23 00:43:00,56.0,-99.9,-100.00,NW,312,4.0,9.0,-999,0.00,,,0.00,,2013-05-23 05:43:00,
2013-05-23 00:52:00,56.0,-99.9,-100.00,NW,312,4.0,9.0,-999,0.00,,,0.00,,2013-05-23 05:52:00,
2013-05-23 01:00:00,56.0,-99.9,-100.00,WNW,295,5.0,15.0,-999,0.00,,,0.00,,2013-05-23 06:00:00,
2013-05-23 01:32:00,56.0,-99.9,-100.00,WNW,295,5.0,15.0,-999,0.00,,,0.00,,2013-05-23 06:32:00,
2013-05-23 01:42:00,56.0,-99.9,-100.00,WNW,295,5.0,15.0,-999,0.00,,,0.00,,2013-05-23 06:42:00,
2013-05-23 01:52:00,56.0,-99.9,-100.00,WNW,295,5.0,15.0,-999,0.00,,,0.00,,2013-05-23 06:52:00,
2013-05-23 02:00:00,55.0,-99.9,-100.00,WNW,293,6.0,15.0,-999,0.00,,,0.00,,2013-05-23 07:00:00,
2013-05-23 02:32:00,55.0,-99.9,-100.00,WNW,293,6.0,15.0,-999,0.00,,,0.00,,2013-05-23 07:32:00,
2013-05-23 02:42:00,55.0,-99.9,-100.00,WNW,293,6.0,15.0,-999,0.00,,,0.00,,2013-05-23 07:42:00,
2013-05-23 02:59:00,55.0,-99.9,-100.00,WNW,293,6.0,15.0,-999,0.00,,,0.00,,2013-05-23 07:59:00,
2013-05-23 04:00:00,54.0,-99.9,-100.00,West,277,5.0,10.0,-999,0.00,,,0.00,,2013-05-23 09:00:00,
2013-05-23 04:42:00,54.0,-99.9,-100.00,West,277,5.0,10.0,-999,0.00,,,0.00,,2013-05-23 09:42:00,
2013-05-23 04:53:00,54.0,-99.9,-100.00,West,277,5.0,10.0,-999,0.00,,,0.00,,2013-05-23 09:53:00,
2013-05-23 05:00:00,54.0,-99.9,-100.00,WNW,294,2.0,8.0,-999,0.01,,,-99.99,,2013-05-23 10:00:00,
2013-05-23 05:33:00,54.0,-99.9,-100.00,WNW,294,2.0,8.0,-999,0.01,,,-99.99,,2013-05-23 10:33:00,
2013-05-23 05:42:00,54.0,-99.9,-100.00,WNW,294,2.0,8.0,-999,0.01,,,-99.99,,2013-05-23 10:42:00,
2013-05-23 05:52:00,54.0,-99.9,-100.00,WNW,294,2.0,8.0,-999,0.01,,,-99.99,,2013-05-23 10:52:00,
2013-05-23 06:00:00,55.0,-99.9,-100.00,West,279,1.0,8.0,-999,0.00,,,0.01,,2013-05-23 11:00:00,
2013-05-23 06:42:00,55.0,-99.9,-100.00,West,279,1.0,8.0,-999,0.00,,,0.01,,2013-05-23 11:42:00,
2013-05-23 06:52:00,55.0,-99.9,-100.00,West,279,1.0,8.0,-999,0.00,,,0.01,,2013-05-23 11:52:00,
2013-05-23 07:00:00,55.0,-99.9,-100.00,North,11,3.0,11.0,-999,0.00,,,0.01,,2013-05-23 12:00:00,
2013-05-23 07:33:00,55.0,-99.9,-100.00,North,11,3.0,11.0,-999,0.00,,,0.01,,2013-05-23 12:33:00,
2013-05-23 07:42:00,55.0,-99.9,-100.00,North,11,3.0,11.0,-999,0.00,,,0.01,,2013-05-23 12:42:00,
2013-05-23 07:52:00,55.0,-99.9,-100.00,North,11,3.0,11.0,-999,0.00,,,0.01,,2013-05-23 12:52:00,
2013-05-23 08:00:00,56.0,-99.9,-100.00,NE,42,4.0,25.0,-999,0.00,,,0.01,,2013-05-23 13:00:00,
2013-05-23 08:32:00,56.0,-99.9,-100.00,NE,42,4.0,25.0,-999,0.00,,,0.01,,2013-05-23 13:32:00,
2013-05-23 08:42:00,56.0,-99.9,-100.00,NE,42,4.0,25.0,-999,0.00,,,0.01,,2013-05-23 13:42:00,
2013-05-23 08:52:00,56.0,-99.9,-100.00,NE,42,4.0,25.0,-999,0.00,,,0.01,,2013-05-23 13:52:00,
2013-05-23 09:00:00,57.0,-99.9,-100.00,NNE,28,4.0,10.0,-999,0.00,,,0.01,,2013-05-23 14:00:00,
2013-05-23 09:42:00,57.0,-99.9,-100.00,NNE,28,4.0,10.0,-999,0.00,,,0.01,,2013-05-23 14:42:00,
2013-05-23 09:52:00,57.0,-99.9,-100.00,NNE,28,4.0,10.0,-999,0.00,,,0.01,,2013-05-23 14:52:00,
2013-05-23 10:00:00,57.0,-99.9,-100.00,NE,44,5.0,11.0,-999,0.00,,,0.01,,2013-05-23 15:00:00,
2013-05-23 10:33:00,57.0,-99.9,-100.00,NE,44,5.0,11.0,-999,0.00,,,0.01,,2013-05-23 15:33:00,
2013-05-23 10:43:00,57.0,-99.9,-100.00,NE,44,5.0,11.0,-999,0.00,,,0.01,,2013-05-23 15:43:00,
2013-05-23 10:54:00,57.0,-99.9,-100.00,NE,44,5.0,11.0,-999,0.00,,,0.01,,2013-05-23 15:54:00,
2013-05-23 11:00:00,59.0,-99.9,-100.00,NE,34,4.0,13.0,-999,0.00,,,0.01,,2013-05-23 16:00:00,
2013-05-23 11:34:00,59.0,-99.9,-100.00,NE,34,4.0,13.0,-999,0.00,,,0.01,,2013-05-23 16:34:00,
2013-05-23 11:43:00,59.0,-99.9,-100.00,NE,34,4.0,13.0,-999,0.00,,,0.01,,2013-05-23 16:43:00,
2013-05-23 11:53:00,59.0,-99.9,-100.00,NE,34,4.0,13.0,-999,0.00,,,0.01,,2013-05-23 16:53:00,
2013-05-23 12:00:00,63.0,-99.9,-100.00,NNE,28,1.0,6.0,-999,0.00,,,0.01,,2013-05-23 17:00:00,
2013-05-23 12:34:00,63.0,-99.9,-100.00,NNE,28,1.0,6.0,-999,0.00,,,0.01,,2013-05-23 17:34:00,
2013-05-23 12:43:00,63.0,-99.9,-100.00,NNE,28,1.0,6.0,-999,0.00,,,0.01,,2013-05-23 17:43:00,
2013-05-23 12:53:00,63.0,-99.9,-100.00,NNE,28,1.0,6.0,-999,0.00,,,0.01,,2013-05-23 17:53:00,
2013-05-23 13:00:00,66.0,-99.9,-100.00,North,11,3.0,9.0,-999,0.00,,,0.01,,2013-05-23 18:00:00,
2013-05-23 13:42:00,66.0,-99.9,-100.00,North,11,3.0,9.0,-999,0.00,,,0.01,,2013-05-23 18:42:00,
2013-05-23 13:52:00,66.0,-99.9,-100.00,North,11,3.0,9.0,-999,0.00,,,0.01,,2013-05-23 18:52:00,
2013-05-23 14:00:00,69.0,-99.9,-100.00,NNE,19,2.0,9.0,-999,0.00,,,0.01,,2013-05-23 19:00:00,
2013-05-23 14:32:00,69.0,-99.9,-100.00,NNE,19,2.0,9.0,-999,0.00,,,0.01,,2013-05-23 19:32:00,
2013-05-23 14:42:00,69.0,-99.9,-100.00,NNE,19,2.0,9.0,-999,0.00,,,0.01,,2013-05-23 19:42:00,
2013-05-23 14:52:00,69.0,-99.9,-100.00,NNE,19,2.0,9.0,-999,0.00,,,0.01,,2013-05-23 19:52:00,
2013-05-23 15:00:00,70.0,-99.9,-100.00,NNE,14,2.0,10.0,-999,0.00,,,0.01,,2013-05-23 20:00:00,
2013-05-23 15:32:00,70.0,-99.9,-100.00,NNE,14,2.0,10.0,-999,0.00,,,0.01,,2013-05-23 20:32:00,
2013-05-23 15:42:00,70.0,-99.9,-100.00,NNE,14,2.0,10.0,-999,0.00,,,0.01,,2013-05-23 20:42:00,
2013-05-23 15:52:00,70.0,-99.9,-100.00,NNE,14,2.0,10.0,-999,0.00,,,0.01,,2013-05-23 20:52:00,
2013-05-23 16:00:00,70.0,-99.9,-100.00,North,5,2.0,8.0,-999,0.00,,,0.01,,2013-05-23 21:00:00,
2013-05-23 16:33:00,70.0,-99.9,-100.00,North,5,2.0,8.0,-999,0.00,,,0.01,,2013-05-23 21:33:00,
2013-05-23 16:43:00,70.0,-99.9,-100.00,North,5,2.0,8.0,-999,0.00,,,0.01,,2013-05-23 21:43:00,
2013-05-23 16:53:00,70.0,-99.9,-100.00,North,5,2.0,8.0,-999,0.00,,,0.01,,2013-05-23 21:53:00,
2013-05-23 17:00:00,72.0,-99.9,-100.00,North,7,2.0,8.0,-999,0.00,,,-99.99,,2013-05-23 22:00:00,
2013-05-23 17:33:00,72.0,-99.9,-100.00,North,7,2.0,8.0,-999,0.00,,,-99.99,,2013-05-23 22:33:00,
2013-05-23 17:43:00,72.0,-99.9,-100.00,North,7,2.0,8.0,-999,0.00,,,-99.99,,2013-05-23 22:43:00,
2013-05-23 17:52:00,72.0,-99.9,-100.00,North,7,2.0,8.0,-999,0.00,,,-99.99,,2013-05-23 22:52:00,
2013-05-23 18:00:00,71.0,-99.9,-100.00,North,7,2.0,9.0,-999,0.00,,,-99.99,,2013-05-23 23:00:00,
2013-05-23 18:32:00,71.0,-99.9,-100.00,North,7,2.0,9.0,-999,0.00,,,-99.99,,2013-05-23 23:32:00,
2013-05-23 18:42:00,71.0,-99.9,-100.00,North,7,2.0,9.0,-999,0.00,,,-99.99,,2013-05-23 23:42:00,
2013-05-23 18:52:00,71.0,-99.9,-100.00,North,7,2.0,9.0,-999,0.00,,,-99.99,,2013-05-23 23:52:00,
2013-05-23 19:00:00,69.0,-99.9,-100.00,NNE,15,1.0,4.0,-999,0.00,,,0.01,,2013-05-24 00:00:00,
2013-05-23 19:32:00,69.0,-99.9,-100.00,NNE,15,1.0,4.0,-999,0.00,,,0.01,,2013-05-24 00:32:00,
2013-05-23 19:42:00,69.0,-99.9,-100.00,NNE,15,1.0,4.0,-999,0.00,,,0.01,,2013-05-24 00:42:00,
2013-05-23 19:52:00,69.0,-99.9,-100.00,NNE,15,1.0,4.0,-999,0.00,,,0.01,,2013-05-24 00:52:00,
2013-05-23 20:00:00,64.0,-99.9,-100.00,SW,218,2.0,4.0,-999,0.00,,,0.01,,2013-05-24 01:00:00,
2013-05-23 20:32:00,64.0,-99.9,-100.00,SW,218,2.0,4.0,-999,0.00,,,0.01,,2013-05-24 01:32:00,
2013-05-23 20:42:00,64.0,-99.9,-100.00,SW,218,2.0,4.0,-999,0.00,,,0.01,,2013-05-24 01:42:00,
2013-05-23 20:52:00,64.0,-99.9,-100.00,SW,218,2.0,4.0,-999,0.00,,,0.01,,2013-05-24 01:52:00,
2013-05-23 21:00:00,61.0,-99.9,-100.00,WSW,241,2.0,3.0,-999,0.00,,,0.01,,2013-05-24 02:00:00,
2013-05-23 21:32:00,61.0,-99.9,-100.00,WSW,241,2.0,3.0,-999,0.00,,,0.01,,2013-05-24 02:32:00,
2013-05-23 21:42:00,61.0,-99.9,-100.00,WSW,241,2.0,3.0,-999,0.00,,,0.01,,2013-05-24 02:42:00,
2013-05-23 21:52:00,61.0,-99.9,-100.00,WSW,241,2.0,3.0,-999,0.00,,,0.01,,2013-05-24 02:52:00,
2013-05-23 22:00:00,59.0,-99.9,-100.00,WSW,251,2.0,4.0,-999,0.00,,,0.01,,2013-05-24 03:00:00,
2013-05-23 22:33:00,59.0,-99.9,-100.00,WSW,251,2.0,4.0,-999,0.00,,,0.01,,2013-05-24 03:33:00,
2013-05-23 22:43:00,59.0,-99.9,-100.00,WSW,251,2.0,4.0,-999,0.00,,,0.01,,2013-05-24 03:43:00,
2013-05-23 22:53:00,59.0,-99.9,-100.00,WSW,251,2.0,4.0,-999,0.00,,,0.01,,2013-05-24 03:53:00,